[[{"header":{"parameterUnit":"m.s-1","parameterCategory":1,"la1":30.2991,"la2":30.254,"lo1":-89.0895,"lo2":-89.0444,"dy":0.0017,"dx":0.0017,"nx":28,"ny":28,"refTime":"2024-12-04T03:00:00:Z","depth":0,"parameterNumber":2,"parameterNumberName":"U-component_of_WINDS"},"data":[0,0,0,0,0,0,0,0,0,0,0,0,0,0,0,0,0,0,0,0,0,0,0,0,0,0,0,0,0,0,0,0,0,0,0,0,0,0,0,0,0,0,0,0,0,0,0,0,0,0,0,0,0,0,0,0,0,0,1.4891,1.4893,0,1.5084,1.5086,1.5088,1.5093,1.509,1.5088,1.5086,1.5291,1.5299,1.5306,0,0,0,0,0,0,0,0,0,0,0,0,0,1.4539,1.4545,1.4891,1.4893,1.4896,1.5083,1.5086,1.5089,1.5093,1.509,1.5087,1.5084,1.5289,1.5298,1.5307,0,0,0,0,0,0,0,0,0,0,0,0,0,1.4708,1.4547,1.4891,1.492,1.4925,1.5083,1.5086,1.5089,1.5094,1.509,1.5086,1.5083,1.5286,1.5297,1.5308,1.5452,0,0,1.5344,1.5349,0,0,0,0,0,0,0,0,1.4698,1.4721,1.4914,1.4919,1.4924,1.506,1.5037,1.5211,1.5095,1.503,1.5086,1.5081,1.5218,1.5235,1.5279,1.5462,1.547,1.5345,1.5352,1.5357,1.536,0,0,0,0,0,0,0,1.4686,1.4713,1.4968,1.4917,1.4923,1.4928,1.4948,1.507,1.5142,1.5035,1.5036,1.5058,1.522,1.5268,1.5284,1.5473,1.5344,1.5355,1.5362,1.5366,1.579,1.5794,0,0,0,0,0,0,1.4667,1.4703,1.4961,1.4973,1.48,1.4937,1.496,1.502,1.5141,1.5155,1.5061,1.5058,1.525,1.527,1.5291,1.5471,1.5357,1.5368,1.5374,1.5785,1.5791,1.5795,0,0,0,0,0,0,1.466,1.469,1.4954,1.4838,1.4872,1.4947,1.5015,1.5026,1.5074,1.516,1.5174,1.5096,1.5248,1.5275,1.5413,1.5478,1.5373,1.5383,1.578,1.5787,1.5793,1.5829,0,0,0,0,0,0,1.465,1.4688,1.474,1.4839,1.4878,1.5068,1.5019,1.5032,1.5093,1.509,1.5197,1.5211,1.5247,1.5395,1.5424,1.5492,1.5392,1.5775,1.5783,1.5791,1.5822,1.5835,1.5847,0,0,0,0,0,1.4637,1.4743,1.4742,1.4774,1.4945,1.5072,1.5095,1.5132,1.5098,1.5153,1.521,1.5207,1.5466,1.5409,1.5442,1.5514,1.5771,1.5781,1.579,1.5816,1.5833,1.5847,0,0,0,0,0,0,1.4651,1.4756,1.4757,1.4897,1.4976,1.5072,1.5143,1.5147,1.5239,1.5233,1.5278,1.5302,1.544,1.5491,1.5426,1.5662,1.5615,1.5632,1.5624,1.564,1.5652,1.5638,1.5402,0,0,0,0,0,1.467,1.4761,1.485,1.4966,1.5005,1.5067,1.5124,1.5146,1.523,1.5264,1.533,1.5414,1.5515,1.558,1.5677,1.5829,1.5855,1.5896,1.5908,1.5918,1.5932,1.6022,1.6042,1.5827,1.5827,1.5827,0,0,1.4711,1.478,1.4835,1.497,1.5033,1.5131,1.5095,1.5198,1.5273,1.528,1.5414,1.5466,1.5564,1.5711,1.5779,1.5757,1.5998,1.593,1.5937,1.5947,1.6034,1.6054,1.6072,1.5833,1.5832,1.5831,0,0,1.4836,1.4896,1.5,1.5065,1.516,1.5202,1.5227,1.5324,1.5359,1.5493,1.5503,1.5594,1.5764,1.5835,1.5893,1.605,1.6053,1.608,1.6146,1.6233,1.625,1.6265,1.6325,1.6345,1.6094,1.6094,1.6094,0,1.4876,1.5019,1.5054,1.5159,1.5221,1.523,1.534,1.5401,1.5525,1.5569,1.5543,1.5761,1.5827,1.5992,1.6031,1.6076,1.6111,1.6068,1.6244,1.626,1.6275,1.6332,1.6354,1.6097,1.6097,1.6096,1.6096,0,1.5066,1.5166,1.524,1.5357,1.5427,1.5534,1.5589,1.5656,1.5673,1.5719,1.586,1.594,1.6055,1.6096,1.6114,1.6266,1.6251,1.6234,1.6187,1.6297,1.6353,1.6374,1.6101,1.61,1.6099,1.6099,0,0,1.5203,1.534,1.5367,1.5423,1.5531,1.5611,1.5721,1.5831,1.589,1.5976,1.6072,1.6219,1.6205,1.6271,1.6298,1.6374,1.6498,1.6349,1.6352,1.6376,1.6676,1.6689,1.6714,1.6501,1.6505,1.6508,1.6669,0,1.5342,1.5533,1.557,1.5738,1.5834,1.5847,1.5943,1.6022,1.6069,1.6161,1.6214,1.6318,1.629,1.6331,1.6406,1.6467,1.6559,1.6455,1.6595,1.6599,1.6571,1.6742,1.6755,1.6903,1.669,1.6694,1.6696,0,1.5528,1.5618,1.5795,1.5894,1.5936,1.6021,1.6128,1.6214,1.6307,1.6336,1.6411,1.6431,1.6551,1.6498,1.6666,1.6595,1.6654,1.6693,1.67,1.6716,1.6655,1.6765,1.695,1.6973,1.673,1.6727,1.6725,0,1.5615,1.578,1.5908,1.5955,1.6073,1.6133,1.6186,1.6274,1.634,1.6436,1.648,1.6588,1.6648,1.6734,1.6785,1.6741,1.6951,1.6901,1.6982,1.6981,1.7027,1.7023,1.7227,1.7061,1.7061,1.7061,1.706,0,1.5767,1.5875,1.5949,1.6028,1.6152,1.6196,1.6319,1.6372,1.6451,1.6544,1.6563,1.6651,1.6711,1.6809,1.6849,1.6985,1.7012,1.7042,1.7052,1.7041,1.7038,1.7082,1.7074,1.7067,1.7065,1.7064,1.7063,0,1.5884,1.5937,1.6078,1.6179,1.6207,1.6295,1.6383,1.6463,1.6511,1.6629,1.666,1.6736,1.6853,1.6911,1.7057,1.7085,1.7239,1.7241,1.7207,1.7211,1.729,1.7283,1.7531,1.7567,1.7375,1.7377,1.7379,0,1.5978,1.6062,1.6172,1.6234,1.6288,1.6388,1.6456,1.6504,1.6574,1.6689,1.6756,1.6873,1.6969,1.7156,1.7228,1.7341,1.7348,1.7427,1.7365,1.7353,1.7353,1.7348,1.7359,1.7438,1.744,1.7442,1.7443,0,1.6141,1.6164,1.6258,1.6364,1.6444,1.653,1.6615,1.6666,1.6729,1.6808,1.6926,1.7001,1.715,1.7268,1.7387,1.7446,1.7458,1.7462,1.7487,1.7478,1.7456,1.7473,1.724,1.7456,1.7455,1.7454,1.7453,1.7453,1.6252,1.6328,1.6419,1.6525,1.6594,1.6674,1.6755,1.6814,1.6912,1.7036,1.7059,1.7186,1.7283,1.7443,1.7506,1.7609,1.7593,1.7628,1.7638,1.7647,1.7652,1.7438,1.7631,1.7631,1.763,1.763,1.763,0,1.6418,1.6477,1.6574,1.6693,1.6778,1.6778,1.6874,1.6946,1.7057,1.7144,1.7238,1.7378,1.7493,1.7575,1.7693,1.7761,1.777,1.7791,1.7788,1.7802,1.7659,1.7626,1.7782,1.7782,1.7782,1.7782,1.7782,1.7782,1.6514,1.6645,1.668,1.6848,1.6908,1.703,1.7085,1.7161,1.7231,1.7385,1.748,1.7531,1.7619,1.7745,1.7853,1.7874,1.7919,1.794,1.7963,1.7827,1.7811,1.7796,1.7766,1.7949,1.7949,1.8098,1.8099,1.81]},{"header":{"parameterUnit":"m.s-1","parameterCategory":1,"la1":30.2991,"la2":30.254,"lo1":-89.0895,"lo2":-89.0444,"dy":0.0017,"dx":0.0017,"nx":28,"ny":28,"refTime":"2024-12-04T03:00:00:Z","depth":0,"parameterNumber":3,"parameterNumberName":"V-component_of_WINDS"},"data":[0,0,0,0,0,0,0,0,0,0,0,0,0,0,0,0,0,0,0,0,0,0,0,0,0,0,0,0,0,0,0,0,0,0,0,0,0,0,0,0,0,0,0,0,0,0,0,0,0,0,0,0,0,0,0,0,0,0,-2.5472,-2.547,0,-2.5313,-2.5311,-2.5309,-2.5276,-2.5278,-2.5279,-2.528,-2.5106,-2.51,-2.5094,0,0,0,0,0,0,0,0,0,0,0,0,0,-2.5739,-2.5734,-2.5472,-2.547,-2.5468,-2.5313,-2.5311,-2.5309,-2.5276,-2.5278,-2.5279,-2.5281,-2.5108,-2.5101,-2.5094,0,0,0,0,0,0,0,0,0,0,0,0,0,-2.5605,-2.5732,-2.5473,-2.5434,-2.5429,-2.5314,-2.5311,-2.5308,-2.5276,-2.5278,-2.5279,-2.5281,-2.511,-2.5102,-2.5093,-2.5002,0,0,-2.5066,-2.5063,0,0,0,0,0,0,0,0,-2.5613,-2.5595,-2.5441,-2.5436,-2.543,-2.5317,-2.5341,-2.5205,-2.5275,-2.5333,-2.528,-2.5282,-2.5174,-2.516,-2.5126,-2.4994,-2.4987,-2.5066,-2.506,-2.5057,-2.5054,0,0,0,0,0,0,0,-2.5622,-2.5602,-2.5409,-2.5439,-2.5432,-2.5421,-2.5404,-2.5315,-2.5245,-2.5329,-2.5326,-2.5308,-2.5171,-2.5134,-2.5121,-2.4984,-2.5066,-2.5058,-2.5053,-2.5049,-2.4766,-2.4764,0,0,0,0,0,0,-2.564,-2.561,-2.5414,-2.5404,-2.5528,-2.5415,-2.5396,-2.5351,-2.5246,-2.5232,-2.5307,-2.5307,-2.5148,-2.5131,-2.5115,-2.4999,-2.5057,-2.5049,-2.5044,-2.4769,-2.4766,-2.4763,0,0,0,0,0,0,-2.5646,-2.5623,-2.542,-2.5506,-2.548,-2.5408,-2.5358,-2.5347,-2.531,-2.5229,-2.5215,-2.5282,-2.5149,-2.5127,-2.503,-2.4992,-2.5045,-2.5037,-2.4771,-2.4768,-2.4765,-2.4768,0,0,0,0,0,0,-2.5653,-2.5625,-2.5592,-2.5506,-2.5475,-2.5342,-2.5356,-2.5342,-2.5296,-2.5295,-2.5203,-2.5189,-2.5149,-2.5044,-2.5022,-2.4981,-2.503,-2.4774,-2.477,-2.4766,-2.4771,-2.4765,-2.476,0,0,0,0,0,-2.5663,-2.5597,-2.559,-2.5567,-2.5433,-2.534,-2.5322,-2.5279,-2.5294,-2.5258,-2.5206,-2.5192,-2.5001,-2.5034,-2.5009,-2.4965,-2.4776,-2.4771,-2.4766,-2.4773,-2.4766,-2.476,0,0,0,0,0,0,-2.5677,-2.5585,-2.5577,-2.5482,-2.5419,-2.5334,-2.5288,-2.5274,-2.5203,-2.5204,-2.5152,-2.5131,-2.5037,-2.4992,-2.503,-2.4871,-2.4889,-2.4879,-2.4903,-2.4895,-2.489,-2.4901,-2.5023,0,0,0,0,0,-2.567,-2.5605,-2.5527,-2.5451,-2.542,-2.536,-2.5318,-2.5291,-2.5222,-2.5194,-2.5135,-2.5066,-2.499,-2.4941,-2.4867,-2.4766,-2.4742,-2.4723,-2.4718,-2.4714,-2.4704,-2.4643,-2.4632,-2.4746,-2.4746,-2.4747,0,0,-2.5652,-2.5595,-2.5556,-2.5452,-2.54,-2.533,-2.5338,-2.5264,-2.521,-2.5182,-2.5087,-2.5042,-2.4961,-2.4861,-2.4813,-2.482,-2.4668,-2.4707,-2.4705,-2.4696,-2.4637,-2.4626,-2.4616,-2.4743,-2.4744,-2.4744,0,0,-2.5585,-2.5537,-2.5467,-2.5415,-2.5338,-2.5299,-2.5282,-2.52,-2.5169,-2.5074,-2.5051,-2.4985,-2.4857,-2.4799,-2.4753,-2.4665,-2.4648,-2.4643,-2.4612,-2.4554,-2.4545,-2.4536,-2.4501,-2.4489,-2.4634,-2.4634,-2.4634,0,-2.5572,-2.5469,-2.5431,-2.5359,-2.5312,-2.5288,-2.5214,-2.5165,-2.5066,-2.5033,-2.5044,-2.4881,-2.4825,-2.471,-2.4688,-2.4653,-2.4629,-2.4651,-2.455,-2.4541,-2.4533,-2.4498,-2.4485,-2.4633,-2.4633,-2.4634,-2.4634,0,-2.5455,-2.5384,-2.5337,-2.5245,-2.5194,-2.5121,-2.5069,-2.502,-2.4999,-2.4957,-2.4859,-2.4792,-2.4702,-2.4674,-2.4651,-2.4554,-2.456,-2.4562,-2.4578,-2.4522,-2.4488,-2.4475,-2.4633,-2.4633,-2.4633,-2.4633,0,0,-2.5388,-2.5279,-2.5261,-2.5219,-2.5133,-2.5075,-2.5,-2.4917,-2.4874,-2.4808,-2.474,-2.4633,-2.4633,-2.4581,-2.4551,-2.4501,-2.443,-2.4507,-2.4504,-2.4491,-2.4315,-2.4311,-2.4297,-2.4421,-2.4418,-2.4416,-2.432,0,-2.5307,-2.5176,-2.514,-2.5027,-2.4958,-2.4935,-2.4869,-2.4807,-2.4767,-2.47,-2.4654,-2.4577,-2.4586,-2.4554,-2.4503,-2.445,-2.4393,-2.4457,-2.4352,-2.4349,-2.4369,-2.428,-2.4276,-2.4188,-2.4307,-2.4305,-2.4303,0,-2.5194,-2.5128,-2.5009,-2.4931,-2.49,-2.4842,-2.4762,-2.47,-2.4628,-2.4602,-2.4545,-2.452,-2.4437,-2.4462,-2.4344,-2.4388,-2.4343,-2.4311,-2.4306,-2.429,-2.4319,-2.4257,-2.416,-2.4145,-2.4283,-2.4284,-2.4286,0,-2.5151,-2.5033,-2.4946,-2.4911,-2.4818,-2.4777,-2.4736,-2.4667,-2.4618,-2.4547,-2.4514,-2.4434,-2.4388,-2.4324,-2.4277,-2.43,-2.4161,-2.4183,-2.4132,-2.4133,-2.41,-2.4102,-2.3989,-2.408,-2.408,-2.408,-2.4081,0,-2.5061,-2.4988,-2.4926,-2.4871,-2.4788,-2.4747,-2.4664,-2.4622,-2.456,-2.4494,-2.447,-2.4407,-2.4351,-2.428,-2.4243,-2.4148,-2.4129,-2.4102,-2.4091,-2.4101,-2.4104,-2.4067,-2.407,-2.4077,-2.4078,-2.4078,-2.4079,0,-2.4998,-2.4954,-2.4857,-2.4779,-2.4757,-2.4698,-2.4629,-2.4574,-2.4534,-2.4451,-2.4429,-2.4364,-2.428,-2.4228,-2.412,-2.4094,-2.3988,-2.3983,-2.4013,-2.4008,-2.3958,-2.3962,-2.3814,-2.379,-2.3902,-2.3901,-2.39,0,-2.4941,-2.4885,-2.4802,-2.4758,-2.4717,-2.4646,-2.4598,-2.4555,-2.4504,-2.4418,-2.4372,-2.4287,-2.4216,-2.4082,-2.4022,-2.3939,-2.3928,-2.3882,-2.3914,-2.3925,-2.3921,-2.3923,-2.3915,-2.3875,-2.3874,-2.3873,-2.3872,0,-2.4843,-2.4825,-2.4758,-2.4682,-2.4625,-2.4563,-2.45,-2.4465,-2.4411,-2.4355,-2.427,-2.4216,-2.4107,-2.4021,-2.3932,-2.3885,-2.3867,-2.3864,-2.3846,-2.3852,-2.3871,-2.3855,-2.3993,-2.3866,-2.3866,-2.3867,-2.3867,-2.3867,-2.4778,-2.4726,-2.4659,-2.4584,-2.4534,-2.4476,-2.442,-2.4374,-2.4304,-2.4214,-2.4193,-2.4103,-2.403,-2.391,-2.3862,-2.3788,-2.3794,-2.377,-2.3763,-2.3756,-2.3753,-2.3888,-2.3772,-2.3772,-2.3772,-2.3772,-2.3772,0,-2.4675,-2.4632,-2.4564,-2.4478,-2.4419,-2.4414,-2.4344,-2.4293,-2.4215,-2.4151,-2.4083,-2.3984,-2.39,-2.3836,-2.3749,-2.3702,-2.3691,-2.368,-2.368,-2.3669,-2.3755,-2.3776,-2.369,-2.369,-2.369,-2.369,-2.369,-2.369,-2.4614,-2.4524,-2.4498,-2.4382,-2.4338,-2.4252,-2.4213,-2.4158,-2.4106,-2.3998,-2.393,-2.389,-2.3824,-2.3733,-2.3655,-2.3638,-2.3604,-2.3593,-2.3574,-2.3654,-2.3663,-2.3671,-2.3691,-2.3588,-2.3588,-2.3493,-2.3492,-2.3491]}]]